Location: Remedello Sotto
(45.2500°N, 10.3667°E)
Time: 20:33:30
(UTC+00:00)

Cosmos 1340 Rocket - Pass Details

Date: 03 February 2023
Orbit: 515 x 558 km, 81.2° (Epoch: 23 March)

Event Time Altitude Azimuth Distance (km) Brightness Sun altitude
Rises 17:07:15 0° 194° (SSW) 2,627 6.7 -7.3°
Reaches altitude 10° 17:09:22 10° 197° (SSW) 1,749 5.9 -7.7°
Maximum altitude 17:13:12 71° 282° (WNW) 559 3.0 -8.3°
Drops below altitude 10° 17:17:08 10° 7° (N) 1,787 5.2 -9.0°
Sets 17:19:19 0° 9° (N) 2,690 6.1 -9.4°
